Yakima, WA
on Monday, December 3, 2012

Monday
Previous Day Next Day
Daily Summary
 ActualAverageRecord
Temperature
Mean Temperature °F 31°F  
Max Temperature 54°F 39°F 61°F (1982)
Min Temperature 40°F 23°F -1°F (1985)
Degree Days
Heating Degree Days 18 34  
Month to date heating degree days 54 101  
Since 1 July heating degree days 1292 1634  
Cooling Degree Days 0 0  
Month to date cooling degree days 0 0  
Year to date cooling degree days 667 472  
Moisture
Dew Point 37°F   
Average Humidity 67    
Maximum Humidity 79    
Minimum Humidity 54    
Precipitation
Precipitation 0.00 in 0.05 in 0.58 in (1980)
Month to date precipitation 0.47 0.15  
Year to date precipitation 7.66 6.87  
Snow
Snow 0.00 in 0.20 in 2.90 in (1970)
Month to date snowfall 0.0 0.8  
Year to date snowfall 22.2 13.0  
Since 1 July snowfall 0.7 4.4  
Snow Depth 0.00 in   
Wind
Wind Speed 7 mph   
Max Wind Speed 24 mph   
Max Gust Speed 67 mph   
Visibility 10 miles   
Events     

Key: T is trace of precipitation, MM is missing value
Source: NWS Daily Summary
Time(PST)TemperatureDew PointHumidity Pressure Visibility Wind DirectionWind SpeedGust SpeedPrecipitationEvents Conditions
12:53 AM 46.0°F 37.0°F 71% 29.81 in 10.0 miles South 16.1 mph 24.2 mph N/A   Clear
1:53 AM 46.9°F 36.0°F 66% 29.84 in 10.0 miles South 15.0 mph - N/A   Clear
2:53 AM 46.9°F 36.0°F 66% 29.86 in 10.0 miles South 15.0 mph 23.0 mph N/A   Mostly Cloudy
3:53 AM 43.0°F 34.0°F 71% 29.88 in 10.0 miles Calm Calm - N/A   Scattered Clouds
4:53 AM 41.0°F 34.0°F 76% 29.89 in 10.0 miles Calm Calm - N/A   Partly Cloudy
5:53 AM 39.9°F 33.1°F 77% 29.91 in 10.0 miles Calm Calm - N/A   Clear
6:53 AM 44.6°F 33.8°F 66% 29.91 in 10.0 miles Calm Calm - N/A   Scattered Clouds
7:53 AM 45.0°F 34.0°F 65% 29.94 in 10.0 miles Variable 4.6 mph - N/A   Scattered Clouds
8:53 AM 48.0°F 36.0°F 63% 29.96 in 10.0 miles Variable 5.8 mph - N/A   Scattered Clouds
9:53 AM 52.0°F 37.0°F 57% 29.99 in 10.0 miles Variable 4.6 mph - N/A   Scattered Clouds
10:53 AM 53.1°F 37.9°F 57% 29.99 in 10.0 miles SSW 9.2 mph 20.7 mph N/A   Scattered Clouds
11:53 AM 54.0°F 39.0°F 57% 29.99 in 10.0 miles SSW 16.1 mph 24.2 mph N/A   Scattered Clouds
12:53 PM 53.1°F 39.0°F 59% 29.99 in 10.0 miles SSW 15.0 mph 21.9 mph N/A   Mostly Cloudy
1:53 PM 53.1°F 39.0°F 59% 29.99 in 10.0 miles South 23.0 mph 29.9 mph N/A   Mostly Cloudy
2:53 PM 52.0°F 39.9°F 63% 30.00 in 10.0 miles South 11.5 mph 21.9 mph N/A   Overcast
3:53 PM 52.0°F 39.0°F 61% 30.01 in 10.0 miles South 12.7 mph - N/A   Overcast
4:53 PM 51.1°F 39.0°F 63% 30.01 in 10.0 miles South 8.1 mph 18.4 mph N/A   Overcast
5:53 PM 51.1°F 37.9°F 61% 30.00 in 10.0 miles Variable 3.5 mph - N/A   Overcast
6:53 PM 50.0°F 37.9°F 63% 29.99 in 10.0 miles Calm Calm - N/A   Overcast
7:53 PM 48.9°F 39.0°F 69% 29.97 in 10.0 miles Calm Calm - N/A   Overcast
8:53 PM 46.9°F 39.0°F 74% 29.93 in 10.0 miles Calm Calm - N/A   Scattered Clouds
9:53 PM 45.0°F 37.9°F 76% 29.88 in 10.0 miles Calm Calm - N/A   Scattered Clouds
10:53 PM 44.1°F 37.9°F 79% 29.84 in 10.0 miles NNW 4.6 mph - N/A   Mostly Cloudy
11:53 PM 45.0°F 37.9°F 76% 29.80 in 10.0 miles Calm Calm - N/A   Overcast
Moon Phase
Dec. 03 Dec. 06 Dec. 13 Dec. 20 Dec. 28
Sunrise:07:28 AM (PST) Moon Rise:09:18 PM (PST)12/3
Sunset:04:15 PM (PST) Moon Set:10:45 AM (PST)12/3

Copyright © 2014 The Weather Underground, Inc.